| time (UTC) | temp F | wind direction | speed knots | gust knots | rain 1hr in | rain 24hr in | rain mn in | humidity % | barometer mb |
| 20260506193040 | 44 | 342 | 1.7 | 2.6 | 0.24 | 2.14 | 1.85 | 99 | 1006.8 |
| 20260506192020 | 44 | 342 | 0.9 | 3.5 | 0.26 | 2.12 | 1.83 | 99 | 1006.7 |
| 20260506191020 | 44 | 350 | 0.9 | 2.6 | 0.26 | 2.10 | 1.80 | 99 | 1006.9 |
| 20260506190018 | 44 | 1 | 0.9 | 4.3 | 0.27 | 2.07 | 1.77 | 99 | 1006.9 |
| 20260506185021 | 44 | 72 | 0.9 | 2.6 | 0.24 | 1.99 | 1.69 | 99 | 1006.8 |
| 20260506184021 | 44 | 121 | 1.7 | 2.6 | 0.29 | 1.94 | 1.65 | 99 | 1007.0 |
| 20260506183021 | 44 | 27 | 2.6 | 3.5 | 0.28 | 1.90 | 1.61 | 99 | 1006.7 |
| 20260506182021 | 44 | 26 | 2.6 | 4.3 | 0.29 | 1.86 | 1.57 | 99 | 1006.8 |
| 20260506181021 | 44 | 25 | 2.6 | 3.5 | 0.31 | 1.84 | 1.54 | 99 | 1006.9 |
| 20260506180021 | 44 | 13 | 2.6 | 4.3 | 0.32 | 1.80 | 1.50 | 99 | 1006.9 |
| 20260506175044 | 45 | 15 | 2.6 | 5.2 | 0.31 | 1.75 | 1.45 | 99 | 1007.0 |
| 20260506174019 | 45 | 3 | 1.7 | 5.2 | 0.26 | 1.66 | 1.36 | 99 | 1006.6 |
| 20260506173041 | 45 | 97 | 0.9 | 0.9 | 0.25 | 1.63 | 1.32 | 99 | 1006.6 |
| 20260506172021 | 46 | 16 | 0.9 | 1.7 | 0.28 | 1.58 | 1.28 | 99 | 1006.8 |
| 20260506171021 | 46 | 18 | 0.9 | 1.7 | 0.28 | 1.53 | 1.23 | 99 | 1007.1 |
| 20260506170022 | 46 | 21 | 0.9 | 2.6 | 0.28 | 1.48 | 1.18 | 99 | 1007.2 |
| 20260506165102 | 46 | 18 | 1.7 | 2.6 | 0.30 | 1.44 | 1.14 | 99 | 1007.3 |
| 20260506164022 | 46 | 37 | 1.7 | 3.5 | 0.37 | 1.40 | 1.10 | 99 | 1007.4 |
| 20260506163102 | 46 | 11 | 1.7 | 1.7 | 0.40 | 1.37 | 1.07 | 99 | 1007.4 |
| 20260506162022 | 46 | 347 | 0.9 | 1.7 | 0.39 | 1.30 | 1.00 | 99 | 1007.1 |
| 20260506161022 | 46 | 21 | 0.9 | 1.7 | 0.41 | 1.25 | 0.95 | 99 | 1007.3 |
| 20260506160022 | 46 | 25 | 0.9 | 1.7 | 0.43 | 1.21 | 0.91 | 98 | 1007.4 |
| 20260506155023 | 46 | 6 | 0.9 | 1.7 | 0.43 | 1.14 | 0.84 | 98 | 1007.6 |
| 20260506154023 | 46 | 13 | 1.7 | 2.6 | 0.40 | 1.03 | 0.73 | 98 | 1007.5 |
| 20260506153103 | 46 | 10 | 0.9 | 1.7 | 0.38 | 0.97 | 0.67 | 98 | 1007.7 |
| 20260506152023 | 47 | 333 | 1.7 | 2.6 | 0.36 | 0.91 | 0.61 | 98 | 1007.8 |
| 20260506151023 | 47 | 343 | 1.7 | 1.7 | 0.31 | 0.84 | 0.54 | 98 | 1008.0 |
| 20260506150024 | 47 | 340 | 1.7 | 2.6 | 0.27 | 0.78 | 0.48 | 98 | 1008.3 |
| 20260506145024 | 47 | 3 | 0.9 | 1.7 | 0.22 | 0.71 | 0.41 | 98 | 1008.5 |
| 20260506144024 | 47 | 44 | 0.0 | 0.9 | 0.16 | 0.63 | 0.33 | 97 | 1008.4 |